Location: Antioch Baptist Church
(32.7160°N, 96.7483°W)
Time: 06:32:06
(UTC+00:00)

Cosmos 2151 - Pass Details

Date: 05 December 2023
Orbit: 572 x 592 km, 82.5° (Epoch: 04 March)

Event Time Altitude Azimuth Distance (km) Brightness Sun altitude
Rises 12:09:32 0° 185° (S) 2,768 6.6 -13.5°
Reaches altitude 10° 12:11:42 10° 186° (S) 1,876 5.7 -13.0°
Maximum altitude 12:15:50 89° 269° (W) 583 2.9 -12.2°
Drops below altitude 10° 12:20:03 10° 6° (N) 1,902 5.4 -11.4°
Sets 12:22:15 0° 7° (N) 2,809 6.3 -10.9°
